Time,TemperatureF,DewpointF,PressureIn,WindDirection,WindDirectionDegrees,WindSpeedMPH,WindSpeedGustMPH,Humidity,HourlyPrecipIn,Conditions,Clouds,dailyrainin,SoftwareType,DateUTC
2013-05-13 00:14:00,62.2,45.0,29.85,SSW,193,5.0,7.0,53,0.00,,,0.00,weatherlink.com 1.10,2013-05-13 07:14:00,
2013-05-13 00:29:00,62.5,45.0,29.85,South,190,5.0,10.0,53,0.00,,,0.00,weatherlink.com 1.10,2013-05-13 07:29:00,
2013-05-13 00:44:00,63.1,44.0,29.85,SSW,198,5.0,14.0,51,0.00,,,0.00,weatherlink.com 1.10,2013-05-13 07:44:00,
2013-05-13 01:00:00,63.4,45.0,29.85,South,181,8.0,15.0,51,0.00,,,0.00,weatherlink.com 1.10,2013-05-13 08:00:00,
2013-05-13 01:15:00,63.6,45.0,29.85,South,184,14.0,15.0,51,0.00,,,0.00,weatherlink.com 1.10,2013-05-13 08:15:00,
2013-05-13 01:30:00,62.6,45.0,29.85,SW,219,6.0,12.0,52,0.00,,,0.00,weatherlink.com 1.10,2013-05-13 08:30:00,
2013-05-13 01:45:00,62.1,44.0,29.85,SSW,198,14.0,17.0,51,0.00,,,0.00,weatherlink.com 1.10,2013-05-13 08:45:00,
2013-05-13 02:00:00,62.0,43.0,29.84,South,174,13.0,21.0,50,0.00,,,0.00,weatherlink.com 1.10,2013-05-13 09:00:00,
2013-05-13 02:15:00,61.8,42.0,29.84,South,191,9.0,21.0,48,0.00,,,0.00,weatherlink.com 1.10,2013-05-13 09:15:00,
2013-05-13 02:30:00,61.4,41.0,29.84,SSW,203,17.0,24.0,48,0.00,,,0.00,weatherlink.com 1.10,2013-05-13 09:30:00,
2013-05-13 02:45:00,61.4,42.0,29.84,South,174,16.0,20.0,49,0.00,,,0.00,weatherlink.com 1.10,2013-05-13 09:45:00,
2013-05-13 03:00:00,61.3,42.0,29.84,SSE,165,12.0,25.0,49,0.00,,,0.00,weatherlink.com 1.10,2013-05-13 10:00:00,
2013-05-13 03:15:00,61.1,42.0,29.85,South,191,9.0,19.0,49,0.00,,,0.00,weatherlink.com 1.10,2013-05-13 10:15:00,
2013-05-13 03:30:00,60.5,41.0,29.84,South,190,12.0,16.0,49,0.00,,,0.00,weatherlink.com 1.10,2013-05-13 10:30:00,
2013-05-13 03:45:00,60.4,40.0,29.84,SSW,193,13.0,19.0,48,0.00,,,0.00,weatherlink.com 1.10,2013-05-13 10:45:00,
2013-05-13 04:00:00,59.8,40.0,29.85,SW,217,13.0,16.0,49,0.00,,,0.00,weatherlink.com 1.10,2013-05-13 11:00:00,
2013-05-13 04:15:00,59.5,40.0,29.85,SSW,195,4.0,15.0,49,0.00,,,0.00,weatherlink.com 1.10,2013-05-13 11:15:00,
2013-05-13 04:30:00,59.3,41.0,29.85,South,174,9.0,16.0,51,0.00,,,0.00,weatherlink.com 1.10,2013-05-13 11:30:00,
2013-05-13 04:45:00,59.2,41.0,29.85,SSW,208,11.0,18.0,52,0.00,,,0.00,weatherlink.com 1.10,2013-05-13 11:45:00,
2013-05-13 05:00:00,59.5,42.0,29.84,SSW,195,14.0,16.0,53,0.00,,,0.00,weatherlink.com 1.10,2013-05-13 12:00:00,
2013-05-13 05:16:00,59.0,43.0,29.85,SSW,211,8.0,14.0,56,0.00,,,0.00,weatherlink.com 1.10,2013-05-13 12:16:00,
2013-05-13 05:30:00,58.2,43.0,29.86,SSW,198,17.0,21.0,57,0.00,,,0.00,weatherlink.com 1.10,2013-05-13 12:30:00,
2013-05-13 05:45:00,57.9,43.0,29.86,SSW,208,13.0,18.0,58,0.00,,,0.00,weatherlink.com 1.10,2013-05-13 12:45:00,
2013-05-13 06:00:00,57.4,43.0,29.86,South,181,11.0,17.0,60,0.00,,,0.00,weatherlink.com 1.10,2013-05-13 13:00:00,
2013-05-13 06:15:00,57.7,43.0,29.86,South,191,10.0,17.0,58,0.00,,,0.00,weatherlink.com 1.10,2013-05-13 13:15:00,
2013-05-13 06:30:00,57.9,43.0,29.86,SSE,150,8.0,14.0,58,0.00,,,0.00,weatherlink.com 1.10,2013-05-13 13:30:00,
2013-05-13 06:45:00,58.3,42.0,29.86,SSW,204,9.0,14.0,56,0.00,,,0.00,weatherlink.com 1.10,2013-05-13 13:45:00,
2013-05-13 07:00:00,59.2,42.0,29.86,SSW,193,6.0,14.0,53,0.00,,,0.00,weatherlink.com 1.10,2013-05-13 14:00:00,
2013-05-13 07:15:00,59.3,43.0,29.86,SW,224,2.0,14.0,56,0.00,,,0.00,weatherlink.com 1.10,2013-05-13 14:15:00,
2013-05-13 07:30:00,58.7,43.0,29.87,SW,215,9.0,11.0,56,0.00,,,0.00,weatherlink.com 1.10,2013-05-13 14:30:00,
2013-05-13 07:45:00,57.8,43.0,29.87,North,353,2.0,6.0,59,0.00,,,0.00,weatherlink.com 1.10,2013-05-13 14:45:00,
2013-05-13 08:00:00,57.5,43.0,29.88,SW,219,4.0,13.0,59,0.00,,,0.00,weatherlink.com 1.10,2013-05-13 15:00:00,
2013-05-13 08:16:00,57.4,44.0,29.87,SSW,203,3.0,6.0,61,0.00,,,0.00,weatherlink.com 1.10,2013-05-13 15:16:00,
2013-05-13 08:31:00,57.4,44.0,29.87,West,266,0.0,3.0,62,0.00,,,0.00,weatherlink.com 1.10,2013-05-13 15:31:00,
2013-05-13 08:46:00,57.5,43.0,29.87,South,186,4.0,8.0,59,0.00,,,0.00,weatherlink.com 1.10,2013-05-13 15:46:00,
2013-05-13 09:01:00,58.2,42.0,29.86,SSW,204,4.0,8.0,56,0.00,,,0.00,weatherlink.com 1.10,2013-05-13 16:01:00,
2013-05-13 09:16:00,58.7,42.0,29.86,SW,226,4.0,7.0,55,0.00,,,0.00,weatherlink.com 1.10,2013-05-13 16:16:00,
2013-05-13 09:31:00,59.2,42.0,29.86,SSW,207,4.0,10.0,53,0.00,,,0.00,weatherlink.com 1.10,2013-05-13 16:31:00,
2013-05-13 09:46:00,59.5,43.0,29.86,SW,222,7.0,7.0,54,0.00,,,0.00,weatherlink.com 1.10,2013-05-13 16:46:00,
2013-05-13 10:01:00,60.3,43.0,29.86,SSW,212,1.0,10.0,54,0.00,,,0.00,weatherlink.com 1.10,2013-05-13 17:01:00,
2013-05-13 10:16:00,60.0,43.0,29.86,SW,218,4.0,11.0,54,0.00,,,0.00,weatherlink.com 1.10,2013-05-13 17:16:00,
2013-05-13 10:31:00,59.7,47.0,29.86,SSW,210,5.0,11.0,63,0.00,,,0.00,weatherlink.com 1.10,2013-05-13 17:31:00,
2013-05-13 10:46:00,59.0,46.0,29.86,SW,231,5.0,10.0,62,0.00,,,0.00,weatherlink.com 1.10,2013-05-13 17:46:00,
2013-05-13 11:01:00,59.0,48.0,29.86,SW,228,0.0,10.0,68,0.00,,,0.00,weatherlink.com 1.10,2013-05-13 18:01:00,
2013-05-13 11:16:00,59.1,48.0,29.85,WSW,250,0.0,2.0,67,0.00,,,0.00,weatherlink.com 1.10,2013-05-13 18:16:00,
2013-05-13 11:31:00,59.7,47.0,29.85,SW,226,4.0,7.0,64,0.00,,,0.00,weatherlink.com 1.10,2013-05-13 18:31:00,
2013-05-13 11:46:00,59.4,50.0,29.84,SSW,201,5.0,8.0,70,0.01,,,0.01,weatherlink.com 1.10,2013-05-13 18:46:00,
2013-05-13 12:01:00,58.8,50.0,29.83,South,186,7.0,10.0,72,0.02,,,0.02,weatherlink.com 1.10,2013-05-13 19:01:00,
2013-05-13 12:16:00,57.9,50.0,29.83,South,188,8.0,10.0,74,0.02,,,0.02,weatherlink.com 1.10,2013-05-13 19:16:00,
2013-05-13 12:31:00,57.7,49.0,29.82,South,179,7.0,11.0,72,0.02,,,0.02,weatherlink.com 1.10,2013-05-13 19:31:00,
2013-05-13 12:46:00,56.8,49.0,29.82,SW,226,1.0,10.0,76,0.02,,,0.03,weatherlink.com 1.10,2013-05-13 19:46:00,
2013-05-13 13:01:00,54.2,49.0,29.84,NW,314,0.0,4.0,83,0.03,,,0.05,weatherlink.com 1.10,2013-05-13 20:01:00,
2013-05-13 13:16:00,53.7,49.0,29.84,West,271,0.0,3.0,85,0.13,,,0.15,weatherlink.com 1.10,2013-05-13 20:16:00,
2013-05-13 13:31:00,53.3,49.0,29.83,SW,236,0.0,3.0,86,0.15,,,0.17,weatherlink.com 1.10,2013-05-13 20:31:00,
2013-05-13 13:46:00,51.8,48.0,29.83,NW,312,4.0,5.0,85,0.21,,,0.24,weatherlink.com 1.10,2013-05-13 20:46:00,
2013-05-13 14:01:00,50.5,47.0,29.84,WSW,239,1.0,2.0,87,0.21,,,0.27,weatherlink.com 1.10,2013-05-13 21:01:00,
2013-05-13 14:16:00,50.1,46.0,29.85,SW,231,0.0,6.0,86,0.22,,,0.37,weatherlink.com 1.10,2013-05-13 21:16:00,
2013-05-13 14:31:00,49.6,45.0,29.85,WSW,242,4.0,8.0,85,0.22,,,0.39,weatherlink.com 1.10,2013-05-13 21:31:00,
2013-05-13 14:46:00,49.3,45.0,29.86,SSW,200,2.0,6.0,85,0.17,,,0.42,weatherlink.com 1.10,2013-05-13 21:46:00,
2013-05-13 15:01:00,49.6,45.0,29.84,South,191,2.0,6.0,85,0.17,,,0.45,weatherlink.com 1.10,2013-05-13 22:01:00,
2013-05-13 15:16:00,49.7,45.0,29.84,SW,236,0.0,7.0,83,0.10,,,0.47,weatherlink.com 1.10,2013-05-13 22:16:00,
2013-05-13 15:31:00,49.3,45.0,29.84,SSW,211,3.0,7.0,85,0.12,,,0.51,weatherlink.com 1.10,2013-05-13 22:31:00,
2013-05-13 15:46:00,48.9,45.0,29.86,West,259,1.0,6.0,86,0.13,,,0.55,weatherlink.com 1.10,2013-05-13 22:46:00,
2013-05-13 16:01:00,48.8,45.0,29.87,South,177,7.0,9.0,87,0.14,,,0.59,weatherlink.com 1.10,2013-05-13 23:01:00,
2013-05-13 16:16:00,48.3,44.0,29.86,SSE,160,11.0,14.0,85,0.16,,,0.63,weatherlink.com 1.10,2013-05-13 23:16:00,
2013-05-13 16:31:00,48.7,44.0,29.83,SSW,200,15.0,21.0,84,0.16,,,0.67,weatherlink.com 1.10,2013-05-13 23:31:00,
2013-05-13 16:47:00,50.0,44.0,29.82,South,179,19.0,31.0,79,0.12,,,0.67,weatherlink.com 1.10,2013-05-13 23:47:00,
2013-05-13 17:02:00,50.5,44.0,29.82,South,188,18.0,34.0,78,0.08,,,0.67,weatherlink.com 1.10,2013-05-14 00:02:00,
2013-05-13 17:17:00,51.3,45.0,29.83,South,191,17.0,31.0,78,0.04,,,0.67,weatherlink.com 1.10,2013-05-14 00:17:00,
2013-05-13 17:32:00,52.5,45.0,29.84,SW,214,20.0,32.0,77,0.00,,,0.67,weatherlink.com 1.10,2013-05-14 00:32:00,
2013-05-13 17:47:00,51.9,45.0,29.84,SSE,168,11.0,30.0,77,0.00,,,0.67,weatherlink.com 1.10,2013-05-14 00:47:00,
2013-05-13 18:02:00,51.9,45.0,29.83,South,173,23.0,27.0,76,0.00,,,0.67,weatherlink.com 1.10,2013-05-14 01:02:00,
2013-05-13 18:17:00,51.9,44.0,29.84,SSW,200,11.0,26.0,75,0.00,,,0.67,weatherlink.com 1.10,2013-05-14 01:17:00,
2013-05-13 18:32:00,51.3,44.0,29.84,SSE,165,18.0,33.0,77,0.00,,,0.67,weatherlink.com 1.10,2013-05-14 01:32:00,
2013-05-13 18:47:00,51.9,45.0,29.84,South,190,15.0,31.0,76,0.00,,,0.67,weatherlink.com 1.10,2013-05-14 01:47:00,
2013-05-13 19:02:00,51.3,44.0,29.84,South,180,16.0,33.0,76,0.00,,,0.67,weatherlink.com 1.10,2013-05-14 02:02:00,
2013-05-13 19:17:00,50.5,44.0,29.83,SSW,193,22.0,35.0,79,0.00,,,0.67,weatherlink.com 1.10,2013-05-14 02:17:00,
2013-05-13 19:32:00,50.6,44.0,29.83,South,190,27.0,37.0,79,0.00,,,0.67,weatherlink.com 1.10,2013-05-14 02:32:00,
2013-05-13 19:47:00,50.8,45.0,29.84,South,187,23.0,38.0,79,0.00,,,0.67,weatherlink.com 1.10,2013-05-14 02:47:00,
2013-05-13 20:02:00,51.3,45.0,29.85,SSW,197,28.0,38.0,79,0.00,,,0.67,weatherlink.com 1.10,2013-05-14 03:02:00,
2013-05-13 20:17:00,51.3,45.0,29.86,SSW,195,20.0,36.0,79,0.00,,,0.67,weatherlink.com 1.10,2013-05-14 03:17:00,
2013-05-13 20:32:00,51.4,45.0,29.86,SSW,193,32.0,34.0,79,0.00,,,0.67,weatherlink.com 1.10,2013-05-14 03:32:00,
2013-05-13 20:47:00,51.3,45.0,29.88,SSW,203,10.0,34.0,79,0.00,,,0.67,weatherlink.com 1.10,2013-05-14 03:47:00,
2013-05-13 21:02:00,51.3,45.0,29.89,South,191,19.0,29.0,78,0.00,,,0.67,weatherlink.com 1.10,2013-05-14 04:02:00,
2013-05-13 21:17:00,51.5,44.0,29.90,South,174,12.0,27.0,76,0.00,,,0.67,weatherlink.com 1.10,2013-05-14 04:17:00,
2013-05-13 21:32:00,51.4,44.0,29.90,SSW,205,15.0,24.0,76,0.00,,,0.67,weatherlink.com 1.10,2013-05-14 04:32:00,
2013-05-13 21:47:00,51.4,43.0,29.92,SSW,207,9.0,25.0,73,0.00,,,0.67,weatherlink.com 1.10,2013-05-14 04:47:00,
2013-05-13 22:02:00,51.0,42.0,29.92,SSW,193,12.0,21.0,70,0.00,,,0.67,weatherlink.com 1.10,2013-05-14 05:02:00,
2013-05-13 22:17:00,50.7,41.0,29.93,SSW,201,13.0,24.0,70,0.00,,,0.67,weatherlink.com 1.10,2013-05-14 05:17:00,
2013-05-13 22:32:00,50.1,40.0,29.94,SSW,197,10.0,16.0,68,0.00,,,0.67,weatherlink.com 1.10,2013-05-14 05:32:00,
2013-05-13 22:47:00,49.8,40.0,29.96,SW,225,7.0,13.0,69,0.00,,,0.67,weatherlink.com 1.10,2013-05-14 05:47:00,
2013-05-13 23:02:00,48.8,39.0,29.96,SSW,197,7.0,15.0,69,0.00,,,0.67,weatherlink.com 1.10,2013-05-14 06:02:00,
2013-05-13 23:17:00,48.2,36.0,29.97,SSW,208,6.0,21.0,62,0.00,,,0.67,weatherlink.com 1.10,2013-05-14 06:17:00,
2013-05-13 23:32:00,47.5,35.0,29.98,SSW,208,9.0,15.0,63,0.00,,,0.67,weatherlink.com 1.10,2013-05-14 06:32:00,
2013-05-13 23:47:00,46.4,36.0,29.99,NNW,346,0.0,13.0,67,0.00,,,0.67,weatherlink.com 1.10,2013-05-14 06:47:00,